Regional Weather Roundup
Issued by NWS

Home | Current Version | Previous Version | Graphics & Text | Print | Product List | Glossary On
Versions: 1 2 3 4 5 6 7 8 9 10 11 12 13 14 15 16 17 18 19 20 21 22 23 24 25 26 27 28 29 30 31 32 33 34 35 36 37 38 39 40 41 42 43 44 45 46 47 48 49 50
000
ASUS45 KCYS 211810
RWRWY

WYOMING REGIONAL WEATHER ROUNDUP
NATIONAL WEATHER SERVICE CHEYENNE WY
1200 PM MDT SUN SEP 21 2014

NOTE:  "FAIR" INDICATES FEW OR NO CLOUDS BELOW 12,000 FEET
WITH NO SIGNIFICANT WEATHER AND/OR OBSTRUCTIONS TO VISIBILITY.

WYZ001-211900-
YELLOWSTONE NATIONAL PARK

CITY           SKY/WX    TMP DP  RH WIND       PRES   REMARKS
LK YELLOWSTONE   N/A     59  41  51 E5        30.42F
6HR MIN TEMP:  33; 6HR MAX TEMP:  60;

W YELLOWSTONE  NOT AVBL

$$
WYZ002>013-054>058-071-098>099-211900-
NORTHERN WYOMING

CITY           SKY/WX    TMP DP  RH WIND       PRES   REMARKS
JACKSON        SUNNY     63  43  48 CALM      30.33F
CODY             N/A    N/A N/A N/A MISG        N/A
GREYBULL       SUNNY     69  42  37 SE6       30.27F
6HR MIN TEMP:  44; 6HR MAX TEMP:  69;

WORLAND        SUNNY     69  42  37 CALM      30.27F
6HR MIN TEMP:  42; 6HR MAX TEMP:  69;

SHERIDAN       SUNNY     70  47  43 NW6       30.28F
6HR MIN TEMP:  38; 6HR MAX TEMP:  70;

BUFFALO        SUNNY     70  39  32 SE22      30.33F
6HR MIN TEMP:  44; 6HR MAX TEMP:  70;

GILLETTE       SUNNY     70  40  33 SE14      30.33F
6HR MIN TEMP:  35; 6HR MAX TEMP:  71;

HULETT         FAIR      70  37  30 MISG      30.36
NEWCASTLE      FAIR      68  34  28 S10       30.37

$$
WYZ014>020-022>026-101>103-211900-
CENTRAL WYOMING

CITY           SKY/WX    TMP DP  RH WIND       PRES   REMARKS
BIG PINEY      CLOUDY    61  39  44 SW3       30.39S
6HR MIN TEMP:  38; 6HR MAX TEMP:  61;

PINEDALE       CLOUDY    64  37  36 E5        30.39S
DUBOIS         FAIR      59  32  36 S5        30.41F
LANDER         PTSUNNY   65  38  36 NW9       30.33F
6HR MIN TEMP:  48; 6HR MAX TEMP:  65;

RIVERTON       MOSUNNY   65  38  36 NE5       30.33F
6HR MIN TEMP:  44; 6HR MAX TEMP:  65;

CASPER         SUNNY     69  35  28 NE5       30.33F
6HR MIN TEMP:  38; 6HR MAX TEMP:  69;

DOUGLAS        SUNNY     70  39  32 SE20G28   30.34F
6HR MIN TEMP:  45; 6HR MAX TEMP:  71;


$$
WYZ021-027>030-104>119-211900-
SOUTHERN WYOMING

CITY           SKY/WX    TMP DP  RH WIND       PRES   REMARKS
EVANSTON       LGT RAIN  52  44  74 E10       30.37R
6HR MIN TEMP:  51; 6HR MAX TEMP:  55; 6HR PCP:  0.02;

KEMMERER       CLOUDY    59  37  44 E9G16     30.38F
FORT BRIDGER   CLOUDY    55  43  63 NE3       30.40F
ROCK SPRINGS   CLOUDY    60  38  43 E7        30.37S
6HR MIN TEMP:  48; 6HR MAX TEMP:  60;

DIXON          MOCLDY    70  46  42 SW18G25   30.40S
RAWLINS        PTSUNNY   65  39  38 VRB3      30.37S
6HR MIN TEMP:  47; 6HR MAX TEMP:  67;

SARATOGA       FAIR      66  45  45 NE5       30.37F
LARAMIE        SUNNY     66  43  43 SE23G29   30.39F
6HR MIN TEMP:  45; 6HR MAX TEMP:  66;

CHEYENNE       SUNNY     66  39  37 S14G22    30.40F
6HR MIN TEMP:  53; 6HR MAX TEMP:  66;

TORRINGTON     PTSUNNY   69  39  33 E12G18    30.35F
6HR MIN TEMP:  47; 6HR MAX TEMP:  69;

PINE BLUFFS    MOCLDY    68  37  32 SE12      30.39F

$$



USA.gov is the U.S. government's official web portal to all federal, state and local government web resources and services.